Temp
49 49 56 58 60 62 61 61 60 59 59 59 58 57 58 59 60 61 62 63 65 65 65 67 70 70 70 69 69 70 69 69
48 49 49 49 49 59 59 59 58 57 57 57 55 54 55 55 57 59 60 61 62 62 63 64 66 68 69 69 69 69 69 69
47 48 50 48 53 53 53 56 56 55 53 54 50 47 47 49 53 56 58 58 58 60 61 62 64 68 68 69 69 69 68 68
46 45 47 48 53 47 47 49 48 47 47 46 46 46 47 49 49 51 53 55 55 56 58 60 61 63 67 68 69 69 68 67
46 45 45 44 46 47 47 47 47 47 46 45 45 46 45 45 45 46 46 49 49 51 53 55 58 59 62 66 68 69 68 67
46 45 44 44 45 45 44 45 47 46 46 45 44 43 43 43 44 46 44 44 45 48 49 51 54 57 60 61 67 69 68 68
45 45 44 44 45 45 44 43 44 44 44 45 43 42 42 42 44 47 45 45 44 45 47 48 50 54 57 59 65 68 68 68
45 46 44 44 43 42 42 42 42 44 43 43 43 42 41 42 43 47 46 45 45 45 45 46 47 51 54 58 61 67 68 68
45 47 44 43 42 42 42 41 43 43 43 41 43 42 41 41 43 43 43 46 45 44 43 46 46 48 50 55 58 67 67 67
45 48 44 43 42 42 43 41 40 43 42 41 42 42 42 40 41 41 43 46 45 43 41 42 44 45 47 51 56 61 66 67
44 43 42 42 42 42 41 41 40 42 42 42 41 41 41 43 43 43 45 45 44 43 41 42 42 44 46 47 51 57 65 66
43 43 43 42 42 41 40 40 40 39 40 41 40 40 44 44 44 43 44 44 44 43 41 42 42 43 44 46 50 56 62 65
42 42 42 40 38 38 37 37 38 38 40 40 40 39 44 44 44 43 44 43 42 42 41 39 39 42 43 44 52 60 61 64
42 41 41 40 38 37 37 36 37 37 38 38 40 39 40 45 44 43 44 43 42 41 40 37 38 40 39 40 46 55 59 62
41 40 40 40 38 38 37 38 37 36 38 38 38 39 40 42 43 43 43 43 41 41 40 35 34 39 40 40 39 44 46 59
39 41 40 42 38 37 34 34 32 34 35 36 37 38 39 40 41 42 42 42 41 41 40 35 36 35 39 41 42 42 42 48
37 40 40 39 38 37 34 33 33 35 35 34 35 38 38 38 40 41 40 40 41 38 35 35 37 37 37 38 40 41 44 44
37 38 38 38 37 37 35 33 33 33 33 33 35 36 37 37 38 39 38 38 38 38 35 37 38 38 38 39 39 38 38 41
39 37 37 37 37 36 35 33 32 32 32 33 33 33 34 35 36 36 37 38 39 37 35 37 38 37 37 38 40 40 41 42
36 36 37 37 36 35 34 33 32 33 33 32 33 33 33 35 35 37 37 38 37 36 36 37 38 37 38 39 40 41 42 42
MSLP
1028.72 1028.18 1027.54 1026.96 1026.27 1025.50 1025.13 1024.69 1024.34 1024.03 1023.58 1023.02 1022.46 1021.96 1021.13 1020.32 1019.47 1018.58 1017.80 1017.29 1016.56 1015.85 1015.36 1014.70 1014.19 1013.84 1013.94 1014.39 1014.70 1014.98 1015.34 1015.95
1029.05 1028.49 1028.00 1027.40 1026.81 1026.03 1025.63 1025.15 1024.80 1024.51 1024.08 1023.45 1022.97 1022.39 1021.60 1020.87 1020.03 1018.86 1018.18 1017.31 1016.90 1016.26 1015.49 1015.00 1014.48 1013.83 1013.45 1013.97 1014.34 1014.64 1014.95 1015.56
1029.28 1028.76 1028.21 1027.69 1026.98 1026.71 1026.28 1025.66 1025.29 1024.88 1024.40 1023.80 1023.33 1022.76 1022.12 1021.53 1020.76 1019.84 1018.87 1017.72 1017.30 1016.19 1015.82 1015.03 1014.64 1013.67 1013.48 1013.31 1013.83 1014.18 1014.59 1015.10
1029.60 1029.10 1028.57 1028.03 1027.33 1027.06 1026.62 1026.12 1025.72 1025.31 1024.81 1024.32 1023.66 1023.15 1022.54 1021.89 1021.31 1020.51 1019.57 1018.27 1018.23 1016.42 1016.25 1015.31 1014.79 1014.21 1013.37 1013.03 1013.24 1013.56 1013.99 1014.58
1029.86 1029.44 1028.90 1028.44 1027.86 1027.39 1026.87 1026.44 1026.06 1025.60 1025.14 1024.66 1024.05 1023.40 1022.86 1022.15 1021.64 1021.04 1020.51 1019.48 1017.94 1016.91 1017.16 1015.52 1015.13 1014.70 1013.88 1013.10 1012.86 1013.22 1013.13 1014.12
1029.95 1029.52 1029.03 1028.57 1028.12 1027.73 1027.32 1026.88 1026.40 1026.06 1025.61 1025.13 1024.43 1023.71 1023.18 1022.58 1022.05 1021.44 1021.00 1020.24 1019.34 1018.54 1017.19 1016.54 1015.64 1015.08 1014.21 1013.34 1012.78 1012.83 1012.78 1013.24
1029.98 1029.58 1029.21 1028.77 1028.32 1027.93 1027.55 1027.23 1026.79 1026.47 1025.98 1025.50 1024.92 1024.36 1023.71 1022.97 1022.29 1021.67 1021.33 1020.66 1019.83 1018.79 1017.99 1016.71 1015.24 1015.20 1014.39 1013.66 1012.71 1012.23 1012.48 1012.63
1029.94 1029.62 1029.43 1028.99 1028.67 1028.29 1027.97 1027.61 1027.29 1026.76 1026.28 1025.85 1025.24 1024.78 1024.25 1023.43 1022.61 1021.79 1021.40 1020.83 1020.08 1019.04 1018.11 1017.53 1015.96 1014.74 1014.99 1013.51 1012.83 1011.76 1011.93 1012.19
1030.08 1029.54 1029.48 1029.23 1028.93 1028.51 1028.10 1027.86 1027.50 1027.03 1026.57 1026.06 1025.57 1025.02 1024.46 1023.89 1023.10 1022.48 1021.77 1020.90 1020.28 1019.37 1018.30 1016.90 1015.61 1015.84 1014.18 1013.68 1012.81 1011.29 1011.40 1011.59
1030.12 1029.76 1029.63 1029.33 1029.06 1028.66 1028.28 1028.07 1027.76 1027.30 1026.89 1026.44 1025.81 1025.25 1024.66 1024.13 1023.45 1022.85 1021.87 1020.94 1020.40 1019.84 1019.03 1017.87 1017.11 1014.95 1014.00 1013.69 1012.75 1011.60 1011.00 1010.95
1030.28 1030.03 1029.82 1029.54 1029.20 1028.94 1028.61 1028.29 1027.96 1027.60 1027.21 1026.68 1026.09 1025.51 1024.90 1024.13 1023.44 1022.89 1022.05 1021.06 1020.33 1019.81 1019.37 1018.43 1017.10 1016.00 1015.05 1013.67 1012.81 1011.11 1010.60 1010.52
1030.40 1030.12 1029.96 1029.72 1029.51 1029.29 1028.89 1028.56 1028.13 1027.83 1027.52 1026.95 1026.37 1025.76 1024.85 1024.18 1023.55 1022.96 1022.20 1021.30 1020.38 1019.73 1019.20 1018.62 1017.65 1016.28 1014.38 1012.32 1011.90 1010.17 1011.04 1009.95
1030.66 1030.37 1030.16 1030.04 1029.86 1029.61 1029.17 1028.89 1028.31 1027.92 1027.62 1027.08 1026.56 1025.94 1025.07 1024.28 1023.61 1022.99 1022.28 1021.52 1020.71 1019.93 1019.18 1018.39 1017.62 1016.51 1014.38 1012.37 1010.70 1009.42 1009.90 1009.68
1030.86 1030.63 1030.50 1030.33 1030.18 1029.94 1029.60 1029.09 1028.58 1028.09 1027.70 1027.15 1026.60 1026.07 1025.36 1024.33 1023.59 1022.92 1022.28 1021.63 1020.92 1020.18 1019.46 1018.66 1018.09 1017.20 1016.20 1014.25 1011.66 1010.11 1008.92 1009.00
1031.08 1030.93 1030.73 1030.44 1030.37 1029.95 1029.50 1029.08 1028.63 1028.13 1027.69 1027.19 1026.63 1026.12 1025.41 1024.72 1023.80 1023.05 1022.33 1021.71 1021.18 1020.59 1020.09 1019.67 1018.43 1017.26 1016.49 1015.71 1013.87 1012.19 1010.84 1009.30
1031.26 1031.13 1030.78 1030.50 1030.38 1030.15 1030.03 1029.81 1029.41 1028.69 1028.18 1027.58 1026.97 1026.30 1025.63 1024.98 1024.20 1023.27 1022.53 1021.95 1021.51 1021.09 1020.73 1020.37 1019.65 1018.34 1017.19 1016.35 1016.03 1015.11 1013.05 1011.23
1031.45 1031.27 1031.02 1030.85 1030.44 1030.37 1030.38 1030.13 1029.68 1029.08 1028.49 1027.89 1027.24 1026.49 1025.87 1025.28 1024.59 1023.63 1022.95 1022.37 1021.87 1021.74 1021.30 1020.68 1020.01 1019.57 1018.85 1017.90 1016.82 1015.73 1015.10 1013.33
1031.52 1031.40 1031.37 1030.89 1030.70 1030.71 1030.56 1030.41 1029.95 1029.36 1028.76 1028.21 1027.56 1026.86 1026.21 1025.56 1024.98 1024.25 1023.56 1022.97 1022.47 1022.10 1021.87 1021.02 1020.22 1019.70 1019.29 1018.69 1017.83 1016.97 1016.23 1014.80
1031.64 1031.68 1031.42 1031.03 1031.10 1030.97 1030.83 1030.60 1030.18 1029.76 1029.28 1028.65 1027.97 1027.33 1026.66 1025.94 1025.31 1024.62 1023.89 1023.11 1022.36 1022.19 1022.13 1021.18 1020.54 1019.96 1019.31 1018.67 1017.82 1017.28 1016.61 1015.99
1031.87 1031.74 1031.38 1031.32 1031.35 1031.27 1031.08 1030.75 1030.37 1030.03 1029.54 1029.03 1028.43 1027.81 1027.12 1026.29 1025.61 1024.88 1024.17 1023.49 1022.89 1022.46 1022.03 1021.30 1020.61 1020.13 1019.38 1018.70 1018.33 1017.37 1016.88 1016.44
Wind_Speed
7 8 15 19 23 25 24 25 24 27 28 30 29 29 29 28 25 25 25 25 24 23 23 19 13 12 13 14 14 13 9 7
8 8 8 9 7 23 23 23 23 25 27 29 28 26 27 27 27 26 26 25 24 24 24 23 21 12 15 16 16 14 9 8
7 9 11 8 10 13 15 19 21 22 20 25 18 11 13 18 23 27 25 24 26 25 27 23 23 13 14 18 18 7 8 7
7 7 9 9 9 8 7 7 6 8 10 13 10 11 13 16 18 25 27 27 24 25 24 22 16 9 5 13 8 10 8 8
7 7 7 7 7 7 5 5 5 7 11 12 12 9 9 8 7 10 12 20 11 15 14 9 13 9 9 4 9 11 8 7
6 7 6 7 4 5 5 5 6 7 9 12 11 7 9 9 7 11 10 10 13 11 9 10 11 12 10 10 8 9 7 7
6 6 7 6 6 6 5 5 6 6 8 11 10 9 9 8 7 10 9 11 12 12 11 11 11 12 10 9 10 10 11 8
7 7 7 7 6 6 5 4 5 6 6 8 12 9 9 9 8 9 9 10 11 11 12 10 7 10 11 10 11 9 11 12
6 5 6 6 7 5 5 4 5 7 7 7 11 10 10 10 9 9 9 10 14 11 12 11 9 10 10 9 10 11 10 13
7 6 7 8 7 6 5 4 4 8 8 8 11 11 11 8 8 8 10 10 10 10 11 11 10 10 10 8 9 9 11 12
7 7 7 7 7 6 6 6 4 6 7 8 11 11 11 9 10 11 13 10 9 9 10 11 11 9 9 9 11 6 9 10
5 5 7 7 5 5 4 4 4 4 6 7 10 8 12 12 10 12 11 10 10 9 12 12 10 11 14 10 9 5 10 10
6 7 7 5 3 4 3 5 4 3 5 8 9 9 10 12 9 10 11 10 10 11 11 14 10 12 9 8 5 3 9 9
6 7 6 5 3 3 2 4 3 3 4 6 8 10 11 10 10 8 12 10 9 10 12 12 8 10 6 6 5 2 1 9
5 6 6 5 6 3 4 4 4 3 6 6 8 10 11 12 13 10 9 8 7 9 10 13 10 11 14 5 5 4 5 4
5 5 7 6 6 5 6 6 5 4 5 7 8 10 12 12 13 13 11 7 8 8 10 8 8 10 10 9 7 6 5 5
4 5 7 6 6 6 5 5 4 5 6 8 8 9 10 11 12 12 12 9 9 8 10 10 7 6 7 7 7 8 4 3
4 7 5 7 7 7 7 8 8 7 8 8 8 8 7 10 12 10 10 9 9 9 8 10 8 9 7 7 5 4 6 4
4 5 6 7 7 7 7 7 7 7 8 7 9 7 8 10 11 10 9 10 10 10 8 9 9 9 9 7 7 6 5 5
4 5 6 7 6 7 6 6 4 5 6 7 6 7 7 10 10 11 11 11 10 11 8 8 9 8 11 9 6 7 5 6
Wind_Direction
352 347 7 8 12 13 15 18 18 17 13 10 7 6 4 360 355 346 346 341 345 348 346 335 268 202 185 179 173 167 152 166
353 355 355 349 354 8 15 15 19 16 12 8 6 3 1 1 358 351 345 348 343 344 346 341 327 238 188 180 178 170 160 159
357 1 3 351 9 4 7 12 16 13 10 6 2 356 352 360 358 357 350 347 344 340 341 342 327 278 214 183 178 178 168 164
5 354 358 360 8 1 354 353 3 3 0 359 357 352 351 356 357 2 357 353 339 347 335 335 340 325 234 200 184 186 171 175
343 346 344 355 358 0 359 355 4 1 2 360 351 349 347 349 352 357 354 349 347 351 323 335 331 325 314 227 196 194 175 179
336 349 356 355 348 353 347 359 9 2 2 359 354 351 348 344 346 357 355 350 338 325 331 329 310 319 305 322 214 195 185 179
335 347 1 351 6 357 358 357 0 354 357 357 355 349 346 338 333 354 352 348 339 329 330 323 315 314 305 306 272 209 194 178
335 357 358 351 357 349 348 350 348 356 348 350 352 348 344 341 325 351 346 347 343 332 330 321 314 313 297 304 305 219 203 188
346 337 354 356 351 346 350 357 358 358 348 336 348 347 346 343 353 351 334 345 346 343 332 329 342 294 314 305 301 238 210 191
338 350 355 354 354 347 348 352 351 358 354 347 345 341 340 341 349 339 335 341 343 346 337 327 325 327 312 303 279 297 213 198
338 348 359 349 353 347 347 353 350 357 353 352 345 340 335 342 352 346 345 341 343 340 342 340 325 321 308 292 267 290 231 200
346 354 3 353 352 337 345 338 335 348 350 351 343 335 349 350 348 347 344 344 343 340 341 347 329 323 310 288 254 249 274 210
1 356 356 7 339 336 339 343 329 327 350 336 340 337 341 346 347 344 346 346 334 341 342 348 342 335 322 336 261 195 255 216
6 12 360 3 348 329 328 317 313 304 330 329 344 342 329 333 336 334 348 342 337 344 348 345 338 341 326 285 306 201 29 223
11 8 357 15 357 338 330 315 315 321 340 334 332 339 336 330 331 335 325 338 336 343 1 352 333 339 341 2 342 340 2 215
28 11 18 10 1 7 0 347 337 317 325 325 328 327 335 334 332 334 337 337 343 359 360 343 335 342 342 357 322 311 7 301
18 12 20 355 8 5 359 337 315 315 328 331 332 334 337 338 341 339 348 351 351 2 353 340 335 336 338 339 325 310 283 275
21 24 346 12 2 352 347 340 339 352 348 347 344 341 336 341 342 341 342 343 344 0 352 334 337 337 336 333 348 337 337 344
5 11 357 6 360 353 350 350 352 352 345 344 344 341 339 335 338 339 339 338 346 356 353 336 340 334 332 333 342 339 342 331
355 358 10 354 350 349 357 356 351 349 341 338 334 336 331 333 336 346 338 338 350 354 350 333 341 335 331 333 343 341 337 334